TimeHST,TemperatureF,Dew PointF,Humidity,Sea Level PressureIn,VisibilityMPH,Wind Direction,Wind SpeedMPH,Gust SpeedMPH,PrecipitationIn,Events,Conditions,WindDirDegrees,DateUTC
12:53 AM,70.0,66.0,87,30.01,10.0,Calm,Calm,-,0.00,,Overcast,0,2012-09-23 10:53:00
1:53 AM,71.1,66.9,87,29.99,10.0,WSW,3.5,-,N/A,,Mostly Cloudy,240,2012-09-23 11:53:00
2:53 AM,70.0,66.0,87,29.99,6.0,SW,5.8,-,0.00,Rain,Light Rain,230,2012-09-23 12:53:00
3:05 AM,69.8,66.2,88,29.99,10.0,SW,3.5,-,0.00,,Mostly Cloudy,220,2012-09-23 13:05:00
3:43 AM,69.8,66.2,88,29.98,10.0,SW,3.5,-,0.00,,Mostly Cloudy,230,2012-09-23 13:43:00
3:53 AM,70.0,68.0,93,29.98,10.0,Calm,Calm,-,0.00,,Mostly Cloudy,0,2012-09-23 13:53:00
4:53 AM,69.1,68.0,96,30.01,9.0,SW,5.8,-,0.05,Rain,Light Rain,230,2012-09-23 14:53:00
5:53 AM,70.0,68.0,93,30.02,7.0,WSW,6.9,-,0.03,,Overcast,240,2012-09-23 15:53:00
6:08 AM,69.8,68.0,94,30.02,8.0,SW,5.8,-,N/A,,Overcast,230,2012-09-23 16:08:00
6:36 AM,71.6,69.8,94,30.03,5.0,SW,5.8,-,0.00,Rain,Rain,230,2012-09-23 16:36:00
6:53 AM,71.1,69.1,93,30.03,7.0,WSW,5.8,-,0.03,Rain,Light Rain,240,2012-09-23 16:53:00
7:17 AM,73.4,69.8,88,30.04,10.0,WSW,6.9,-,0.01,,Overcast,250,2012-09-23 17:17:00
7:53 AM,75.0,71.1,87,30.04,10.0,West,6.9,-,0.01,,Mostly Cloudy,260,2012-09-23 17:53:00
8:53 AM,79.0,71.1,77,30.05,10.0,WSW,3.5,-,N/A,,Mostly Cloudy,240,2012-09-23 18:53:00
9:53 AM,80.1,70.0,71,30.06,10.0,Calm,Calm,-,N/A,,Scattered Clouds,0,2012-09-23 19:53:00
10:27 AM,80.6,69.8,70,30.05,10.0,Calm,Calm,-,N/A,,Mostly Cloudy,0,2012-09-23 20:27:00
10:34 AM,80.6,69.8,70,30.05,10.0,Variable,5.8,-,N/A,,Scattered Clouds,0,2012-09-23 20:34:00
10:53 AM,81.0,70.0,69,30.04,10.0,Calm,Calm,-,N/A,,Scattered Clouds,0,2012-09-23 20:53:00
11:53 AM,82.9,72.0,69,30.03,10.0,ENE,10.4,-,N/A,,Scattered Clouds,60,2012-09-23 21:53:00
12:53 PM,84.0,70.0,63,30.00,10.0,ENE,11.5,-,N/A,,Scattered Clouds,60,2012-09-23 22:53:00
1:53 PM,84.0,72.0,67,29.99,10.0,ENE,10.4,19.6,N/A,,Scattered Clouds,70,2012-09-23 23:53:00
2:53 PM,81.0,71.1,72,29.99,10.0,ENE,15.0,-,N/A,,Overcast,60,2012-09-24 00:53:00
3:53 PM,81.0,71.1,72,29.99,10.0,ENE,9.2,-,N/A,,Mostly Cloudy,60,2012-09-24 01:53:00
4:53 PM,79.0,69.1,72,30.00,10.0,NNE,4.6,-,N/A,,Overcast,20,2012-09-24 02:53:00
5:53 PM,77.0,70.0,79,30.01,10.0,North,6.9,-,N/A,,Overcast,360,2012-09-24 03:53:00
6:42 PM,73.4,71.6,94,30.02,2.5,NE,6.9,-,0.00,Rain,Heavy Rain,50,2012-09-24 04:42:00
6:53 PM,73.9,72.0,93,30.02,2.0,NE,10.4,-,0.08,Rain,Heavy Rain,50,2012-09-24 04:53:00
7:03 PM,73.4,71.6,94,30.03,2.0,ENE,10.4,-,0.08,Rain,Heavy Rain,70,2012-09-24 05:03:00
7:20 PM,73.4,71.6,94,30.04,5.0,Calm,Calm,-,0.16,Rain,Light Rain,0,2012-09-24 05:20:00
7:31 PM,73.4,71.6,94,30.04,6.0,North,4.6,-,0.16,Rain,Light Rain,10,2012-09-24 05:31:00
7:43 PM,73.4,71.6,94,30.04,7.0,Calm,Calm,-,0.17,Rain,Light Rain,0,2012-09-24 05:43:00
7:53 PM,73.0,71.1,93,30.04,10.0,WNW,4.6,-,0.17,,Overcast,300,2012-09-24 05:53:00
8:17 PM,73.4,71.6,94,30.06,10.0,WNW,4.6,-,N/A,,Overcast,300,2012-09-24 06:17:00
8:53 PM,73.0,71.1,93,30.06,10.0,West,4.6,-,N/A,,Overcast,260,2012-09-24 06:53:00
9:53 PM,73.0,71.1,93,30.06,10.0,WSW,4.6,-,N/A,,Mostly Cloudy,240,2012-09-24 07:53:00
10:53 PM,73.9,69.1,85,30.06,10.0,Variable,3.5,-,0.00,Rain,Light Rain,0,2012-09-24 08:53:00
11:25 PM,71.6,69.8,94,30.06,10.0,West,3.5,-,0.05,Rain,Light Rain,280,2012-09-24 09:25:00
11:53 PM,72.0,69.1,91,30.06,10.0,West,6.9,-,0.05,,Overcast,280,2012-09-24 09:53:00